DW8084 Weather Reports


Display with metric or nautical units.
time (UTC)temp
F
wind
direction
speed
MPH
gust
MPH
rain 1hr
in
rain 24hr
in
rain mn
in
humidity
%
barometer
mb
20260507143205 55 105 1.0 8.0 0.00 0.00 0.00 73
20260507142204 56 107 1.0 8.0 0.00 0.00 0.00 71
20260507141205 56 139 1.0 5.0 0.00 0.00 0.00 68
20260507140414 56 184 1.0 4.0 0.00 0.00 0.00 67
20260507135205 56 191 0.0 4.0 0.00 0.00 0.00 68
20260507134204 56 195 1.0 3.0 0.00 0.00 0.00 67
20260507133205 57 188 2.0 5.0 0.00 0.00 0.00 63
20260507132205 57 192 3.0 7.0 0.00 0.00 0.00 62
20260507131204 58 188 3.0 9.0 0.00 0.00 0.00 61
20260507130204 58 181 3.0 6.0 0.00 0.00 0.00 60
20260507125204 58 175 3.0 9.0 0.00 0.00 0.00 59
20260507124204 58 172 3.0 8.0 0.00 0.00 0.00 58
20260507123418 58 177 3.0 7.0 0.00 0.00 0.00 60
20260507122205 58 188 2.0 5.0 0.00 0.00 0.00 58
20260507121415 58 179 2.0 5.0 0.00 0.00 0.00 58
20260507120416 58 172 3.0 7.0 0.00 0.00 0.00 58
20260507115204 58 172 2.0 7.0 0.00 0.00 0.00 61
20260507114205 57 127 2.0 6.0 0.00 0.00 0.00 63
20260507113204 57 105 2.0 5.0 0.00 0.00 0.00 64
20260507112204 57 123 3.0 7.0 0.00 0.00 0.00 65
20260507111415 57 117 2.0 5.0 0.00 0.00 0.00 65
20260507110417 58 111 3.0 7.0 0.00 0.00 0.00 66
20260507105204 58 132 3.0 8.0 0.00 0.00 0.00 66
20260507104205 59 145 3.0 6.0 0.00 0.00 0.00 67
20260507103414 58 136 2.0 8.0 0.00 0.00 0.00 69
20260507102415 58 120 3.0 8.0 0.00 0.00 0.00 69
20260507101416 57 113 3.0 7.0 0.00 0.00 0.00 70
20260507100205 56 108 3.0 8.0 0.00 0.00 0.00 71
20260507095205 55 105 2.0 6.0 0.00 0.00 0.00 73
20260507094204 54 109 2.0 4.0 0.00 0.00 0.00 75
20260507093204 54 101 2.0 6.0 0.00 0.00 0.00 74
20260507092204 53 84 2.0 7.0 0.00 0.00 0.00 76
20260507091204 53 98 3.0 6.0 0.00 0.00 0.00 77
20260507090205 53 127 2.0 6.0 0.00 0.00 0.00 78
20260507085204 52 111 1.0 4.0 0.00 0.00 0.00 79
20260507084414 51 95 1.0 4.0 0.00 0.00 0.00 81
20260507083204 50 106 1.0 4.0 0.00 0.00 0.00 82
20260507082416 49 108 1.0 3.0 0.00 0.00 0.00 83
20260507081204 48 92 1.0 4.0 0.00 0.00 0.00 84
20260507080204 48 86 1.0 4.0 0.00 0.00 0.00 85
20260507075204 47 98 1.0 3.0 0.00 0.00 0.00 86
20260507074205 47 91 1.0 3.0 0.00 0.00 0.00 87
20260507073205 46 88 2.0 5.0 0.00 0.00 0.00 87
20260507072204 46 88 2.0 5.0 0.00 0.00 0.00 87
20260507071205 46 80 1.0 6.0 0.00 0.00 0.00 88
20260507070204 46 79 1.0 3.0 0.00 0.00 0.00 88
20260507065204 45 103 0.0 3.0 0.00 0.00 0.00 88
20260507064205 45 95 0.0 2.0 0.00 0.00 0.00 89
20260507063417 45 96 1.0 3.0 0.00 0.00 0.00 89
20260507062204 45 93 0.0 3.0 0.00 0.00 0.00 89
20260507061204 45 80 1.0 4.0 0.00 0.00 0.00 89
20260507060204 44 81 1.0 3.0 0.00 0.00 0.00 89
20260507055415 44 83 1.0 3.0 0.00 0.00 0.00 90
20260507054416 44 77 1.0 4.0 0.00 0.00 0.00 90
20260507053204 44 81 1.0 4.0 0.00 0.00 0.00 90
20260507052204 44 81 0.0 2.0 0.00 0.00 0.00 90
20260507051414 44 79 2.0 5.0 0.00 0.00 0.00 90
20260507050415 44 81 1.0 3.0 0.00 0.00 0.00 90
20260507045204 44 79 2.0 4.0 0.00 0.00 0.00 90
20260507044204 44 77 2.0 4.0 0.00 0.00 0.00 90
20260507043203 44 78 1.0 4.0 0.00 0.00 0.00 90
20260507042204 44 86 1.0 4.0 0.00 0.00 0.00 89
20260507041203 44 83 1.0 3.0 0.00 0.00 0.00 89
20260507040203 44 76 2.0 5.0 0.00 0.00 0.00 89
20260507035203 44 75 2.0 5.0 0.00 0.00 0.00 89
20260507034203 44 76 2.0 5.0 0.00 0.00 0.00 89
20260507033203 44 78 2.0 4.0 0.00 0.00 0.00 88
20260507032204 44 79 2.0 7.0 0.00 0.00 0.00 88
20260507031415 44 79 2.0 4.0 0.00 0.00 0.00 88
20260507030416 44 79 2.0 5.0 0.00 0.00 0.00 87
20260507025204 44 80 3.0 7.0 0.00 0.00 0.00 87
20260507024203 45 81 2.0 6.0 0.00 0.00 0.00 86
20260507023414 45 79 2.0 6.0 0.00 0.00 0.00 86
20260507022203 45 79 1.0 4.0 0.00 0.00 0.00 86
20260507021203 45 83 2.0 5.0 0.00 0.00 0.00 85
20260507020203 45 83 1.0 4.0 0.00 0.00 0.00 85
20260507015204 45 80 2.0 6.0 0.00 0.00 0.00 85
20260507014204 45 78 3.0 7.0 0.00 0.00 0.00 85
20260507013203 45 81 2.0 6.0 0.00 0.00 0.00 85
20260507012204 45 86 1.0 5.0 0.00 0.00 0.00 85
20260507011417 46 81 2.0 7.0 0.00 0.00 0.00 85
20260507010417 46 81 3.0 7.0 0.00 0.00 0.00 85
20260507005203 46 83 3.0 9.0 0.00 0.00 0.00 85
20260507004414 46 84 3.0 9.0 0.00 0.00 0.00 85
20260507003204 46 86 3.0 8.0 0.00 0.00 0.00 84
20260507002203 46 83 2.0 7.0 0.00 0.00 0.00 84
20260507001203 46 87 2.0 7.0 0.00 0.00 0.00 83
20260507000205 46 89 3.0 7.0 0.00 0.00 0.00 83
20260506235203 46 87 2.0 6.0 0.00 0.00 0.00 82
20260506234203 46 84 3.0 7.0 0.00 0.00 0.00 81
20260506233205 46 81 2.0 5.0 0.00 0.00 0.00 81
20260506232203 46 85 3.0 8.0 0.00 0.00 0.00 80
20260506231205 46 89 2.0 6.0 0.00 0.00 0.00 79
20260506230203 46 92 2.0 5.0 0.00 0.00 0.00 78
20260506225204 47 85 1.0 4.0 0.00 0.00 0.00 77
20260506224204 47 81 2.0 7.0 0.00 0.00 0.00 76
20260506223204 47 82 2.0 8.0 0.00 0.00 0.00 74
20260506222204 47 82 2.0 7.0 0.00 0.00 0.00 73
20260506221204 48 81 1.0 5.0 0.00 0.00 0.00 72
20260506220204 48 79 2.0 7.0 0.00 0.00 0.00 71
20260506215415 48 82 2.0 6.0 0.00 0.00 0.00 70
20260506214416 48 93 1.0 3.0 0.00 0.00 0.00 70
20260506213205 48 97 1.0 2.0 0.00 0.00 0.00 69
20260506212204 49 88 1.0 2.0 0.00 0.00 0.00 68
20260506211203 49 91 1.0 3.0 0.00 0.00 0.00 68
20260506210203 49 93 1.0 2.0 0.00 0.00 0.00 67
20260506205204 50 89 1.0 2.0 0.00 0.00 0.00 65
20260506204204 50 84 1.0 3.0 0.00 0.00 0.00 64
20260506203203 51 80 2.0 5.0 0.00 0.00 0.00 63
20260506202204 51 77 2.0 5.0 0.00 0.00 0.00 62
20260506201415 52 79 1.0 4.0 0.00 0.00 0.00 61
20260506200203 52 81 1.0 4.0 0.00 0.00 0.00 60
20260506195203 53 77 1.0 3.0 0.00 0.00 0.00 58
20260506194203 53 76 2.0 5.0 0.00 0.00 0.00 56
20260506193203 54 76 2.0 4.0 0.00 0.00 0.00 55
20260506192203 54 77 1.0 3.0 0.00 0.00 0.00 54
20260506191204 54 67 2.0 5.0 0.00 0.00 0.00 53
20260506190203 55 50 2.0 4.0 0.00 0.00 0.00 52
20260506185203 55 45 3.0 7.0 0.00 0.00 0.00 52
20260506184206 55 28 2.0 6.0 0.00 0.00 0.00 53
20260506183205 55 13 3.0 6.0 0.00 0.00 0.00 53
20260506182206 56 11 3.0 8.0 0.00 0.00 0.00 52
20260506181205 56 16 3.0 7.0 0.00 0.00 0.00 51
20260506180204 56 31 1.0 4.0 0.00 0.00 0.00 52
20260506175418 56 40 1.0 5.0 0.00 0.00 0.00 50
20260506174419 57 35 2.0 5.0 0.00 0.00 0.00 50
20260506173205 57 35 2.0 7.0 0.00 0.00 0.00 50
20260506172416 58 33 2.0 5.0 0.00 0.00 0.00 50
20260506171206 58 31 3.0 6.0 0.00 0.00 0.00 49
20260506170417 58 42 3.0 6.0 0.00 0.00 0.00 49
20260506165205 58 14 1.0 6.0 0.00 0.00 0.00 49
20260506164205 58 323 1.0 2.0 0.00 0.00 0.00 49
20260506163205 58 341 2.0 5.0 0.00 0.00 0.00 49
20260506162205 59 357 3.0 6.0 0.00 0.00 0.00 47
20260506161205 59 348 2.0 6.0 0.00 0.00 0.00 49
20260506160206 59 12 2.0 6.0 0.00 0.00 0.00 48
20260506155205 58 37 2.0 7.0 0.00 0.00 0.00 48
20260506154206 59 20 1.0 5.0 0.00 0.00 0.00 49
20260506153416 59 353 2.0 7.0 0.00 0.00 0.00 52
20260506152205 59 356 4.0 11.0 0.00 0.00 0.00 50
20260506151418 59 348 2.0 5.0 0.00 0.00 0.00 50
20260506150205 58 338 3.0 8.0 0.00 0.00 0.00 54
20260506145208 57 22 3.0 9.0 0.00 0.00 0.00 53
20260506144205 57 40 2.0 4.0 0.00 0.00 0.00 56